Location: Basse Occidentale du Courleau
(48.3833°N, 4.8333°W)
Time: 09:55:58
(UTC+00:00)

Cosmos 1400 Rocket - Pass Details

Date: 05 July 2020
Orbit: 521 x 568 km, 81.2° (Epoch: 07 August)

Event Time Altitude Azimuth Distance (km) Brightness Sun altitude
Rises 21:08:00 0° 351° (N) 2,729 7.4 -6.5°
Reaches altitude 10° 21:10:13 10° 355° (N) 1,822 6.3 -6.8°
Maximum altitude 21:14:11 61° 76° (ENE) 617 2.9 -7.2°
Drops below altitude 10° 21:18:04 10° 157° (SSE) 1,779 4.8 -7.7°
Enters shadow 21:18:22 - 158° (SSE) 1,902 5.0 -7.7°
